Temp
73 75 72 74 71 70 70 72 77 74 77 78 78 76 74 73 73 72 70 69 69 68
73 72 71 71 72 73 72 74 72 73 73 76 76 76 74 72 71 71 70 69 70 70
74 74 73 72 71 71 71 70 69 70 70 72 73 74 73 72 72 70 71 71 68 68
73 73 72 70 71 71 71 71 71 72 71 70 70 70 70 70 71 70 69 69 69 68
73 72 70 70 70 70 69 70 70 71 71 72 72 70 70 70 72 70 69 69 68 69
71 70 69 68 69 69 69 68 69 69 69 69 70 69 69 70 70 70 69 69 68 68
68 68 67 67 67 67 68 67 67 67 68 69 69 69 69 68 66 66 67 67 67 68
68 68 68 67 67 67 66 67 67 67 66 66 67 69 65 62 59 59 60 61 63 63
68 68 67 66 66 65 65 65 65 64 64 62 66 57 49 50 53 55 56 56 58 60
68 67 66 67 65 63 61 60 60 60 60 59 58 50 45 47 50 49 51 51 52 54
67 66 65 62 61 58 58 55 54 54 54 54 54 47 45 46 46 46 49 49 50 49
65 62 60 57 53 52 52 52 51 51 50 47 45 46 43 44 45 47 47 49 49 49
58 56 53 51 50 50 49 46 45 44 44 43 42 44 43 44 46 45 46 47 48 47
53 51 50 48 46 42 40 40 40 42 42 43 44 43 43 43 44 45 44 44 45 47
MSLP
1009.27 1009.04 1008.88 1008.93 1008.91 1008.70 1008.89 1008.69 1008.32 1008.89 1008.89 1009.15 1009.28 1009.71 1009.85 1009.95 1009.97 1010.06 1010.26 1010.37 1010.49 1010.53
1009.78 1009.72 1009.60 1009.46 1009.10 1009.17 1009.07 1009.19 1009.47 1009.41 1009.14 1009.18 1009.21 1009.31 1009.57 1009.70 1009.68 1009.80 1009.82 1009.77 1009.79 1009.89
1010.03 1009.89 1009.88 1009.85 1009.81 1009.57 1009.47 1009.16 1009.16 1009.21 1009.28 1009.17 1009.20 1009.09 1009.14 1009.17 1009.07 1009.21 1009.09 1008.99 1009.10 1009.22
1010.07 1010.01 1010.19 1010.23 1010.28 1010.10 1009.84 1009.70 1009.54 1009.39 1009.14 1009.10 1009.00 1008.86 1008.74 1008.76 1008.75 1008.68 1008.39 1008.50 1008.52 1008.57
1010.25 1010.30 1010.34 1010.34 1010.27 1010.10 1009.94 1009.86 1009.67 1009.46 1009.24 1008.93 1008.76 1008.59 1008.45 1008.37 1008.19 1008.02 1007.91 1007.83 1007.86 1007.82
1010.29 1010.35 1010.29 1010.18 1010.11 1010.08 1009.82 1009.65 1009.47 1009.26 1009.11 1008.86 1008.52 1008.36 1008.12 1007.90 1007.58 1007.24 1007.01 1007.01 1007.07 1007.06
1010.16 1010.21 1009.99 1009.96 1009.66 1009.62 1009.41 1009.19 1009.02 1008.92 1008.69 1008.53 1008.31 1008.13 1007.89 1007.69 1007.40 1007.08 1006.74 1006.47 1006.28 1006.15
1010.07 1009.72 1009.64 1009.48 1009.31 1009.10 1008.94 1008.75 1008.59 1008.46 1008.31 1008.19 1008.12 1007.89 1007.72 1007.75 1007.73 1007.41 1007.16 1006.90 1006.62 1006.37
1009.95 1009.65 1009.10 1009.03 1008.94 1008.52 1008.29 1008.15 1008.09 1008.03 1007.96 1007.89 1007.79 1007.72 1008.15 1008.28 1008.11 1007.75 1007.58 1007.22 1006.77 1006.54
1009.73 1009.32 1009.04 1008.84 1008.62 1008.52 1008.42 1008.36 1008.35 1008.14 1007.94 1007.87 1007.95 1007.90 1008.00 1008.14 1008.05 1007.90 1007.73 1007.43 1007.16 1006.79
1009.57 1009.35 1009.20 1009.07 1008.93 1008.88 1008.86 1008.94 1008.85 1008.56 1008.36 1008.18 1007.96 1007.95 1008.11 1008.08 1007.85 1007.46 1007.08 1006.78 1006.58 1006.39
1009.75 1009.63 1009.61 1009.69 1009.80 1009.73 1009.51 1009.25 1009.00 1008.78 1008.52 1008.41 1008.18 1007.96 1007.90 1007.78 1007.34 1006.73 1006.26 1006.02 1005.91 1005.65
1010.55 1010.69 1010.59 1010.59 1010.42 1010.18 1009.94 1009.84 1009.66 1009.07 1008.73 1008.39 1007.89 1007.36 1007.17 1007.16 1006.54 1005.99 1005.61 1005.28 1004.97 1004.81
1011.46 1011.45 1011.33 1011.06 1010.99 1010.83 1010.40 1009.99 1009.31 1008.72 1008.07 1007.62 1007.18 1006.52 1006.22 1006.08 1005.85 1005.27 1004.93 1004.61 1004.14 1003.89
Wind_Speed
9 7 6 7 5 3 2 4 1 4 4 3 3 5 5 3 3 4 5 7 6 4
6 7 7 8 7 7 7 7 8 7 5 5 5 6 5 5 5 6 6 7 7 6
5 6 6 5 6 7 6 7 6 4 5 6 6 6 6 7 7 8 8 7 7 8
4 5 5 5 5 5 6 6 6 8 7 7 7 7 7 8 10 12 11 9 10 10
4 4 4 5 6 6 6 7 8 9 10 10 10 8 9 11 13 14 14 14 14 15
4 5 6 6 6 7 8 9 9 10 11 12 12 12 11 12 13 13 14 16 16 16
7 7 7 8 8 9 9 9 9 10 11 12 12 13 12 13 13 12 12 11 11 12
9 9 9 9 9 9 9 10 11 13 12 12 11 10 12 8 9 10 11 11 12 13
12 13 11 10 10 9 10 9 9 10 12 12 10 9 8 9 7 9 11 12 12 12
14 14 12 12 11 10 10 10 11 12 12 11 11 9 12 15 9 10 11 12 12 14
14 14 13 13 12 11 11 12 12 12 13 13 11 14 18 21 17 16 17 16 15 15
14 14 14 14 14 13 13 13 13 13 14 13 15 22 19 17 13 14 16 14 14 15
14 15 15 15 15 12 11 12 12 17 16 19 19 21 19 19 11 12 11 13 14 18
13 13 13 12 11 14 15 15 14 15 15 16 16 18 23 20 12 11 10 11 11 10
Wind_Direction
16 15 26 23 1 349 322 25 159 187 177 201 210 224 235 264 241 226 223 232 234 242
14 19 23 5 357 5 4 349 18 352 350 271 230 231 243 226 235 228 223 228 217 217
346 6 2 354 349 345 342 346 329 331 318 301 292 263 245 251 239 230 232 233 226 223
357 349 339 346 322 317 320 308 296 294 291 276 277 271 264 252 258 266 261 246 244 246
317 307 309 301 303 303 301 302 301 298 289 283 277 276 269 257 255 256 258 256 259 251
315 304 300 298 293 287 290 289 287 288 287 287 286 284 282 279 275 268 254 251 253 258
319 311 303 286 279 275 273 276 279 284 285 284 286 288 290 292 292 291 287 286 285 272
306 300 295 292 287 279 276 276 277 277 276 280 281 280 285 321 332 323 315 311 309 302
301 294 294 292 287 279 277 280 290 293 292 289 284 296 46 16 326 307 301 297 296 299
303 303 300 302 310 316 317 315 303 298 300 308 312 329 351 336 319 312 296 291 289 289
304 307 316 318 317 326 335 330 320 309 307 300 299 325 315 307 303 292 282 278 276 273
318 320 329 334 332 324 318 311 306 304 300 299 292 292 285 281 277 271 270 270 266 263
343 330 327 320 314 308 309 312 305 296 286 281 278 272 272 275 264 271 275 275 270 267
329 319 310 315 321 310 298 286 280 278 278 274 272 274 270 264 266 265 270 270 273 267